This is the latest recevied weather packets stored in our database for station/object KE5OYL. If no packets are shown the sender has not sent any weather packets the latest 10 day(s).
| Time | Temp. | Humidity | Pressure | Rain* | Wind** | Luminosity | Snow |
|---|---|---|---|---|---|---|---|
| 1788565233 | 35.56° C | 45% | 1011.5 hPa | 0 mm | - | 84 W/m² | - |
| 1788564927 | 36.11° C | 45% | 1011.5 hPa | 0 mm | - | 91 W/m² | - |
| 1788564624 | 36.11° C | 45% | 1011.8 hPa | 0 mm | - | 100 W/m² | - |
| 1788564320 | 35.56° C | 45% | 1011.6 hPa | 0 mm | - | 117 W/m² | - |
| 1788564017 | 36.11° C | 45% | 1011.6 hPa | 0 mm | - | 131 W/m² | - |
| 1788563712 | 36.11° C | 44% | 1011.4 hPa | 0 mm | - | 140 W/m² | - |
| 1788563407 | 36.11° C | 45% | 1011.8 hPa | 0 mm | - | 161 W/m² | - |
| 1788563106 | 36.11° C | 44% | 1011.2 hPa | 0 mm | - | 168 W/m² | - |
| 1788562801 | 36.11° C | 44% | 1011.6 hPa | 0 mm | - | 170 W/m² | - |
| 1788562499 | 36.67° C | 43% | 1011.8 hPa | 0 mm | - | 66 W/m² | - |
| 1788562192 | 36.67° C | 44% | 1011.6 hPa | 0 mm | - | 222 W/m² | - |
| 1788561889 | 36.11° C | 44% | 1011.8 hPa | 0 mm | - | 243 W/m² | - |
| 1788561588 | 36.11° C | 44% | 1011.4 hPa | 0 mm | - | 265 W/m² | - |
| 1788561287 | 36.11° C | 44% | 1011.5 hPa | 0 mm | - | 285 W/m² | - |
| 1788560983 | 36.67° C | 43% | 1011.8 hPa | 0 mm | - | 88 W/m² | - |
| 1788560679 | 36.67° C | 44% | 1011.8 hPa | 0 mm | - | 316 W/m² | - |
| 1788560378 | 36.67° C | 45% | 1011.9 hPa | 0 mm | - | 342 W/m² | - |
| 1788560073 | 36.11° C | 45% | 1011.8 hPa | 0 mm | - | 337 W/m² | - |
| 1788559769 | 36.11° C | 45% | 1011.6 hPa | 0 mm | - | 252 W/m² | - |
| 1788559468 | 36.67° C | 45% | 1011.6 hPa | 0 mm | - | 99 W/m² | - |
| 1788559164 | 36.67° C | 43% | 1011.6 hPa | 0 mm | - | 278 W/m² | - |
| 1788558858 | 36.67° C | 43% | 1011.8 hPa | 0 mm | - | 108 W/m² | - |
| 1788558554 | 36.11° C | 45% | 1012.1 hPa | 0 mm | - | 176 W/m² | - |
| 1788558250 | 37.22° C | 43% | 1011.9 hPa | 0 mm | - | 102 W/m² | - |
| 1788557949 | 36.67° C | 43% | 1011.9 hPa | 0 mm | - | 483 W/m² | - |
* Rain latest hour (hover to see other rain measurements)
** Current wind speed in m/s (hover to see current wind gust speed)